Overview Statistics Trail Chart Weather Telemetry Raw packets
 

This is the latest recevied weather packets stored in our database for station/object OE5RBO. If no packets are shown the sender has not sent any weather packets the latest 10 day(s).

<< 10 11 12 13 14 15 16 >>
Time Temp. Humidity Pressure Rain* Wind** Luminosity Snow
1788458709 22.22° C 67% 1021.3 hPa 0 mm - - -
1788457509 22.78° C 66% 1021 hPa 0 mm - - -
1788456909 22.78° C 66% 1021 hPa 0 mm - - -
1788456308 22.78° C 65% 1020.9 hPa 0 mm - - -
1788455707 23.33° C 64% 1020.9 hPa 0 mm - - -
1788455107 23.33° C 63% 1021 hPa 0 mm - - -
1788454507 23.89° C 62% 1020.9 hPa 0 mm - - -
1788453906 24.44° C 60% 1020.9 hPa 0 mm - - -
1788453306 24.44° C 59% 1020.9 hPa 0 mm - - -
1788452706 25° C 57% 1020.9 hPa 0 mm - - -
1788452105 25.56° C 55% 1020.7 hPa 0 mm - - -
1788451505 26.11° C 54% 1020.8 hPa 0 mm - - -
1788450904 26.11° C 55% 1020.9 hPa 0 mm - - -
1788450304 25.56° C 57% 1020.9 hPa 0 mm - - -
1788449104 26.11° C 56% 1021 hPa 0 mm - - -
1788448503 26.11° C 55% 1021.1 hPa 0 mm - - -
1788447903 26.67° C 55% 1021.2 hPa 0 mm - - -
1788446702 26.11° C 56% 1021.1 hPa 0 mm - - -
1788445501 26.11° C 54% 1021 hPa 0 mm - - -
1788444901 26.67° C 53% 1021.3 hPa 0 mm - - -
1788444300 27.22° C 53% 1021.1 hPa 0 mm - - -
1788443700 26.11° C 56% 1021.6 hPa 0 mm - - -
1788443100 26.67° C 55% 1021.2 hPa 0 mm - - -
1788441899 27.22° C 54% 1021.3 hPa 0 mm - - -
1788441298 26.67° C 54% 1021.7 hPa 0 mm - - -

* Rain since midnight (hover to see other rain measurements)
** Current wind speed in m/s (hover to see current wind gust speed)